sat.trackr.live / text

‹ back to catalog

GLOBAL-13

NORAD 49773 · 2021-115BB

PAYLOAD ACTIVE UNKNOWN

§ Identity

Operator
Country
US
Launch date
2021-12-02
Launch site
AFETR
Launch vehicle
Mass (kg)
RCS (m²)

External: N2YO · Heavens-Above · Gunter

§ Orbital elements

Epoch: 2026-09-19T18:51:29.331360Z

Period
92.94 min
Inclination
53.1974°
Eccentricity
0.0003604
Mean motion
15.49403675 rev/d
Perigee alt
416.0 km
Apogee alt
420.9 km
Semi-major
6,796.6 km
B*
2.8910e-4
RAAN
323.7465°
Arg perigee
60.4428°
Mean anomaly
299.6941°
Rev number
27,041

§ Raw data

GLOBAL-131 49773U 21115BB  26262.78575615  .00015717  00000+0  28910-3 0  99952 49773  53.1974 323.7465 0003604  60.4428 299.6941 15.49403675270416

JSON: /api/v1/satellites/49773 · /tle

For live sub-satellite position, see the globe view (requires WebGL).

§ Visibility from observer

Set your observer location to see the next 7 days of passes ≥ 10°. The values pass through the URL so the page stays shareable.

No JS? Fill the form by hand. The geolocation button needs JavaScript.

§ Radio — SatNOGS DB

ModeDescriptionDownlinkUplink
FM Telemetry 401.375 MHz
FM Telemetry (inactive) 400.876 MHz
BPSK UHF Unknown (inactive) 401.223 MHz

3 transmitters · refreshed weekly from db.satnogs.org